Simultaneous Nadir Overpasses (SNOs) Predictions

Prediction of SNOs between GOES-17 and LANDSAT-8 Satellite Orbit:

Table of predicted SNOs for the next 14.0 days since TLE Epoch: 2/21/2025
Index Date Time (GOES-17) GOES-17 Lat,Lon LANDSAT-8 Lat,Lon Distance(km) Time Diff (sec)
1 02/23/2025 16:57:42 0.01,-104.41 -0.53,-101.79 297.37 80
2 02/24/2025 05:19:06 -0.02,-104.38 -0.56,-106.98 295.08 80
3 02/26/2025 05:09:32 -0.00,-104.38 0.06,-104.01 41.20 80
4 02/28/2025 04:57:18 -0.00,-104.38 0.71,-101.05 378.31 80
5 02/28/2025 17:18:33 0.00,-104.40 0.37,-106.21 205.09 80
6 03/02/2025 17:03:38 0.01,-104.40 -0.25,-103.24 132.35 80
7 03/03/2025 05:25:01 -0.01,-104.37 -0.87,-108.42 460.55 80
8 03/04/2025 16:51:23 0.01,-104.40 -0.89,-100.27 469.68 80
9 03/05/2025 05:12:46 -0.00,-104.37 -0.22,-105.46 123.24 80
10 03/07/2025 05:03:10 -0.00,-104.36 0.40,-102.48 213.92 80
11 03/07/2025 17:24:25 0.00,-104.39 0.66,-107.64 369.21 80
